075  
ASUS46 KPDT 240725  
RWRPDT  
PENDLETON REGIONAL WEATHER ROUNDUP  
NATIONAL WEATHER SERVICE PENDLETON OREGON  
1100 PM PST TUE JAN 23 2018  
 
NOTE: FAIR INDICATES FEW OR NO CLOUDS BELOW 12,000 FEET WITH NO  
SIGNIFICANT WEATHER AND/OR S TO VISIBILITY
.  
 
# INDICATES UNOFFICIAL STATION AND DATA  
 
WAZ520-240810-  
EAST SLOPES OF WASHINGTON CASCADES  
 
CITY SKY/WX TMP DP RH WIND PRES REMARKS
 
#BULLFROG N/A 32 32 100 CALM N/A  
#CLE ELUM HS N/A 34 32 92 CALM 29.78F  
#EASTON DOT N/A 31 31 100 N2 N/A  
#ELK HTS DOT N/A 33 33 100 SE3 N/A  
#GLENWOOD N/A 32 31 96 CALM 29.92F  
#NELSON 3SW N/A 30 29 96 CALM 30.09F  
#NILE N/A 32 31 96 CALM 29.13F  
#TEANAWAY 4NE N/A 34 34 100 CALM N/A  
#TROUT LAKE 1NE N/A 32 31 96 CALM 29.92S  
#TROUT LAKE 1E N/A 32 31 96 CALM 29.87F  

 
 
WAZ521-240810-  
SIMCOE HIGHLANDS  
 
CITY SKY/WX TMP DP RH WIND PRES REMARKS
 
#BICKLETON HS N/A 37 34 89 SW18 29.48S WCI 27  
#CENTERVILLE 1SWN/A 34 31 89 CALM 29.87S  
#GOLDENDALE 1NE N/A 38 34 85 CALM N/A  
#GOLDENDALE 4W N/A 35 31 85 CALM 29.89S  
#GOODNOE HILLS N/A 38 36 92 CALM 29.77R  
#LYLE 6NE N/A 34 33 96 CALM 29.91F  
#PITT 4SE N/A 37 36 96 CALM 29.93S  

 
 
WAZ026-240810-  
KITTITAS VALLEY  
 
CITY SKY/WX TMP DP RH WIND PRES REMARKS
 
#ELLENSBURG CWU N/A 33 32 96 CALM 29.83R  
#ELLENSBURG 3NE N/A 32 31 96 CALM 27.91F  
#ELLENSBURG 1E N/A 33 32 96 CALM 29.94F  
#KITTITAS 3S N/A 32 31 96 CALM 29.89S  
#MANASTASH RDG N/A 35 34 96 CALM N/A  
#ROCKY CYN DOT N/A 34 34 100 E2 N/A  
#RYEGRASS DOT N/A 33 31 92 CALM N/A  

 
 
WAZ027-240810-  
YAKIMA VALLEY  
 
CITY SKY/WX TMP DP RH WIND PRES REMARKS
 
SUNNYSIDE AP CLOUDY 40 37 89 E7 29.85F  
YAKIMA AIRPORT MOCLDY 35 33 92 CALM 29.85F FOG  
YAKIMA-VAGABOND FOG 32 32 100 CALM 29.82F VSB 3/8  
#DONALD 2NE N/A 33 26 75 SW1 28.70F  
#GRANDVIEW N/A 40 38 92 CALM 29.90F  
#MOXEE 2E N/A 33 N/A N/A CALM 29.85F  
#NACHES 2SW N/A 34 33 96 CALM 29.83F  
#OUTLOOK DOT N/A 34 34 100 CALM 29.83F  
#PARKER DOT N/A 34 34 100 CALM 29.84F  
#TERRACE HTS N/A 33 32 96 CALM 29.85F  
#TOPPENISH N/A 34 32 92 CALM 29.80F  
#I82 S UMTANUM RN/A 35 33 92 CALM N/A  
#UNION GAP DOT N/A 34 34 100 CALM 29.88F  
#W YAKIMA N/A 32 32 100 N2 29.89F  
#WHITE SWAN 5E N/A 34 33 96 CALM 29.89F  
#WILEY CITY 3W N/A 33 29 85 CALM 29.80F  
#ZILLAH DOT N/A 34 N/A N/A NE1 N/A  

 
 
WAZ028-240810-  
LOWER COLUMBIA BASIN...WASHINGTON  
 
CITY SKY/WX TMP DP RH WIND PRES REMARKS
 
HANFORD LGT RAIN 34 34 100 N5 29.88F FOG  
PASCO CLOUDY 38 37 96 CALM 29.90F FOG  
PROSSER AWOS N/A 41 39 93 E5 29.89F  
RICHLAND AWOS MXD PCPN 37 37 100 CALM 29.89F  
#BENTON CITY N/A 37 36 96 CALM 29.80F  
#CONNELL 5N N/A 42 40 93 S3 29.92F  
#CONNELL 5NW N/A 42 40 93 S8 29.87F  
#ELTOPIA 6NW N/A 41 40 96 S7 28.85F  
#KAHLOTUS N/A 44 40 86 SW8 29.92F  
#KENNEWICK 3S N/A 41 40 96 CALM 29.91F  
#PATERSON N/A 37 36 96 SE1 29.88F  
#PROSSER DOT N/A 42 38 86 CALM 29.88F  
#SAGEMOOR 2W N/A 40 38 92 CALM 29.79F  
#TOUCHET 2S N/A 46 40 79 S15 29.89F WCI 40  
#WEST PASCO N/A 38 37 96 CALM 29.87F  

 
 
WAZ029-240810-  
FOOTHILLS OF THE BLUES...WASHINGTON  
 
CITY SKY/WX TMP DP RH WIND PRES REMARKS
 
WALLA WALLA AP LGT RAIN 49 38 66 S20G30 29.90F WCI 42  
#CLYDE 6NW N/A 44 39 82 S16 29.92F WCI 37  
#DELANEY DOT N/A 42 38 86 CALM 29.94S  
#LOWDEN 2SE N/A 48 40 74 S14 29.88F WCI 42  
#PLEASANT VIEW 1N/A 42 39 89 SE16G25 29.96F WCI 34  
#PRESCOTT N/A 46 41 83 CALM 29.92F  
#WHITMAN COLLEGEN/A 49 39 68 SE8 29.97F  
#WAITSBURG 5S N/A 43 38 82 SE17G26 30.02S WCI 35  
#WAITSBURG 6SSE N/A 44 38 79 SE12G29 29.74F WCI 38  
#WAITSBURG 8N N/A 0 N/A N/A S14 29.68R WCI -19  
#WALLA WALLA 5E N/A 50 39 66 SE28G35 N/A  
#WHITMAN MISSIONN/A 49 41 74 CALM 29.94F  

 
 
WAZ030-240810-  
BLUE MOUNTAINS...WASHINGTON  
 
CITY SKY/WX TMP DP RH WIND PRES REMARKS
 
#DIXIE 5SE N/A 39 35 85 N17G32 29.80S WCI 30  

 
 
ORZ009-041-WAZ024-240810-  
COLUMBIA RIVER GORGE  
 
CITY SKY/WX TMP DP RH WIND PRES REMARKS
 
HOOD RIVER AP RAIN 36 34 92 S3 29.89F  
THE DALLES AP LGT RAIN 39 37 92 CALM 29.89F FOG  
#ARLINGTON AIRPON/A 37 36 96 SW1 29.91S  
#ARLINGTON HS N/A 39 37 92 CALM 29.81F  
#CELILO DOT N/A 39 37 92 S16G26 N/A WCI 30  
#LYLE N/A 38 37 96 CALM 29.91F  
#MARYHILL N/A 37 N/A N/A N2 N/A  
#MURDOCK N/A 38 37 96 N2 29.86F  
#RUFUS DOT N/A 40 N/A N/A CALM N/A  
#SMITHVILLE N/A 38 37 96 NW2 29.86F  
 

 
 
ORZ510-240810-  
NORTH CENTRAL OREGON  
 
CITY SKY/WX TMP DP RH WIND PRES REMARKS
 
#ANTELOPE N/A 47 33 58 SW7 29.79F  
#CHENOWITH 1W N/A 35 35 100 E3 N/A  
#COW CYN RST AREN/A 46 N/A N/A S16 N/A WCI 39  
#DUFUR N/A 35 34 96 E1 29.86F  
#DUFUR 9E N/A 41 38 89 SW3 29.94S  
#GRASS VALLEY 1SN/A 40 37 89 SW5 29.87  
#KENT DOT N/A 42 25 51 S8 N/A  
#MAUPIN SCHOOL N/A 39 36 89 CALM 29.91F  
#SHANIKO 5WSW N/A 43 N/A N/A S18 N/A WCI 35  
#SHANIKO 4NW N/A 42 28 57 S18G26 29.83S WCI 34  
#TYGH VALLEY 2NEN/A 38 36 92 CALM 29.89F  
#WAPANITIA AIRPON/A 42 39 89 CALM 29.92F  
#WASCO DOT N/A 38 37 96 CALM N/A  
#WASCO 5NE N/A 38 27 64 CALM 29.90S  

 
 
ORZ511-240810-  
CENTRAL OREGON  
 
CITY SKY/WX TMP DP RH WIND PRES REMARKS
 
BEND AIRPORT PTCLDY 45 28 51 S14 29.91S WCI 39  
PRINEVILLE AP MOCLDY 45 28 51 S9 29.91S  
REDMOND AIRPORT MOCLDY 45 29 53 S13 29.89S WCI 39  
#ASHWOOD SCHOOL N/A 49 31 50 SE7 29.84S  
#BEND 1SW N/A 40 30 67 W2 N/A  
#BEND-AWBREY N/A 41 31 67 SW8 29.93F  
#BEND-KIM LN N/A 44 34 68 SE7 29.85S  
#CULVER N/A 47 31 53 SE16G28 29.73F WCI 41  
#CULVER 8W N/A 44 29 55 SE2 29.88F  
#LAKE BILLY CHINN/A 46 N/A N/A S1 29.96S  
#POWELL BUTTE N/A 45 25 45 S16 29.85S WCI 38  
#PRINEVILLE N/A 47 30 51 CALM 30.03S  
#PRINEVILLE 3N N/A 45 31 58 SE12 29.95S WCI 39  
#WARM SPRINGS N/A 49 36 61 CALM 29.72F  
 

 
 
 
ORZ509-240810-  
EAST SLOPES OF OREGON CASCADES  
 
CITY SKY/WX TMP DP RH WIND PRES REMARKS
 
SISTERS AWOS N/A 46 34 63 S8 29.84S  
#BLUE BOX PASS N/A 33 N/A N/A S16 N/A WCI 23  
#CAMP SHERMAN N/A 38 36 92 CALM 29.96F  
#LA PINE DOT N/A 39 27 62 E3 N/A  
#LA PINE 4NW N/A 37 27 67 SE1 30.06S  
#LAVA BUTTE DOT N/A 38 21 50 SE7 N/A  
#SISTERS ODOT N/A 47 32 56 SE2 N/A  
#SISTERS 3N N/A 40 32 73 SW3 29.88S  
#SUNRIVER N/A 38 30 73 SW3 30.00S  
#TUMALO 3W N/A 41 31 67 SE14 29.81S WCI 33  
#WANOGA BUTTE D N/A 29 29 100 W13 N/A WCI 19  
 

 
 
ORZ044-240810-  
LOWER COLUMBIA BASIN...OREGON  
 
CITY SKY/WX TMP DP RH WIND PRES REMARKS
 
HERMISTON CLOUDY 39 39 100 N3 29.87F FOG  
#BOARDMAN SCHOOLN/A 38 36 92 CALM 29.88F  
#ECHO 8SW N/A 38 38 100 CALM 29.88F  
#I-84 EX 198 DOTN/A 49 37 63 NE26G35 N/A WCI 41  
#IONE SCHOOL N/A 51 34 52 NW2 29.89F  
#UMATILLA N/A 39 35 85 CALM 29.82F  

 
 
ORZ507-240810-  
NORTHERN FOOTHILLS OF THE BLUES  
 
CITY SKY/WX TMP DP RH WIND PRES REMARKS
 
PENDLETON AIRPT LGT RAIN 47 37 68 SE16 29.88F WCI 41  
#ADAMS 3WNW N/A 40 39 96 CALM 29.94F  
#ATHENA N/A 42 37 82 SE8 29.96F  
#HELIX SCHOOL N/A 42 38 86 S18G26 29.94F WCI 34  
#HELIX 3N N/A 41 38 89 SE22G35 29.91F WCI 31  
#HOLDMAN 5SE N/A 45 40 82 SE6 29.88F  
#HOLDMAN 6E N/A 41 41 100 E7 29.72F  
#M-F GROVE ELEM N/A 46 36 68 SE10G25 29.87F  
#M-FREEWATER 5SEN/A 45 37 73 E20G31 29.91F WCI 37  
#PENDLETON DNTN N/A 49 34 56 SW2 N/A  
#PDT AQUATIC CTRN/A 48 36 63 SE15 29.88F WCI 42  
#PDT SUNRIDGE N/A 49 39 68 S15G26 29.90F WCI 43  
#PENDLETON 6SE N/A 47 39 74 S16G38 29.85F WCI 41  
#PENDLETON 7NW N/A 47 39 74 E15 29.11S WCI 41  
#PILOT ROCK 1S N/A 49 31 50 E24G37 29.87F WCI 42  
#PILOT ROCK N/A 48 36 63 CALM 29.87F  
#TUTUILLA N/A 46 37 71 SE9G24 29.94F  
#UMAPINE 2E N/A 48 41 77 SE15 29.88F WCI 42  
 

 
 
ORZ508-240810-  
SOUTHERN FOOTHILLS OF THE BLUES  
 
CITY SKY/WX TMP DP RH WIND PRES REMARKS
 
LEXINGTON MOCLDY 48 36 63 S29G38 29.88F WCI 39  
#AJAX N/A 45 28 51 N6 30.01R  
#CONDON 5W N/A 42 32 67 CALM 29.81S  
#FOSSIL SCHOOL N/A 47 33 58 SE6 29.82S  
#HEPPNER EOC N/A 47 35 63 W13G28 29.83S WCI 41  
#HEPPNER 4NE N/A 44 34 68 S6 29.90F  
#LEXINGTON 2SE N/A 51 36 56 CALM 29.82S  
#MIKKALO N/A 35 34 96 CALM 29.96S  
#OLEX 4N N/A 36 35 96 CALM 29.85S  
#RUGGS 5NE N/A 42 33 70 N10 30.01S  
#RUGGS 2SW N/A 42 34 73 S17G41 29.94R WCI 34  
 

 
 
ORZ502-503-240810-  
BLUE MOUNTAINS  
 
CITY SKY/WX TMP DP RH WIND PRES REMARKS
 
MEACHAM LGT SNOW 33 30 89 CALM 29.92F FOG  
#BATTLE MTN DOT N/A 32 31 96 S16G26 N/A WCI 21  
#GRANITE N/A 29 25 85 CALM 29.59F  
#HARDMAN 10S N/A 32 31 96 SE3 30.16S  
#LADD CYN SMT N/A N/A N/A N/A SE20G28 N/A  
#LADD CREEK ODOTN/A 33 31 92 S10 N/A  
#LONG CREEK HS N/A 43 32 65 SW15G26 29.93F WCI 36  
#N POWDER DOT N/A 33 31 92 SE16 N/A WCI 23  
#PIKES PEAK N/A 39 32 76 S36G52 27.99S WCI 26  
#SUMMERVILLE 5NWN/A 33 31 92 SE6 27.95F  
#TROY SCHOOL N/A 37 35 92 CALM 29.93S  
#UKIAH N/A 35 33 92 CALM 29.98F  
#WESTON 4E N/A 34 32 92 SE15G24 29.97F WCI 24  

 
 
ORZ505-240810-  
JOHN DAY BASIN  
 
CITY SKY/WX TMP DP RH WIND PRES REMARKS
 
JOHN DAY CLOUDY 45 27 49 S21G32 29.96F WCI 37  
#ANTELOPE 9ESE N/A 44 33 65 SW1 N/A  
#DAYVILLE SCHOOLN/A 43 30 60 CALM 29.93F  
#MITCHELL 8NW N/A 40 31 70 S10G26 29.99S  
#MONUMENT HS N/A 40 35 82 NW3 29.91F  
#MT. VERNON 5SE N/A 39 29 67 E8 29.93S  
#WINLOCK N/A 46 40 79 NE2 29.89S  

 
 
ORZ506-240810-  
OCHOCO AND JOHN DAY HIGHLANDS  
 
CITY SKY/WX TMP DP RH WIND PRES REMARKS
 
#HORSE RIDGE DO N/A 40 24 52 S16G24 N/A WCI 32  
#IZEE 6NW N/A 38 28 67 SE8 N/A  
#PAULINA ODOT N/A 41 25 53 NW3 N/A  
#PINE MTN OBS N/A 29 25 85 S20G31 N/A WCI 16  
#PRAIRIE CITY N/A 38 30 73 CALM 30.13F  
#SENECA N/A 32 N/A N/A CALM N/A  
#SENECA 9NW N/A 30 28 92 CALM 30.17F  

 
 
ORZ049-240810-  
GRANDE RONDE VALLEY  
 
CITY SKY/WX TMP DP RH WIND PRES REMARKS
 
LA GRANDE LGT RAIN 36 32 85 S16G25 30.03F WCI 26  
#COVE SCHOOL N/A 41 34 76 E15G32 29.99F WCI 33  
#COVE 6NW N/A 39 33 79 E9 30.07F  
#ELGIN 3N N/A 35 30 82 SW12 29.97F WCI 27  
#ELGIN 1E N/A 37 32 82 S5 N/A  
#IMBLER SCHOOL N/A 36 32 85 S5 29.97F  
#ISLAND CITY 4N N/A 48 47 96 S5 29.80S  
#LADD CYN DOT N/A 35 33 92 S25G41 N/A WCI 23  
#UNION 1S N/A 40 32 73 SE10 30.09F  

 
 
ORZ050-240810-  
WALLOWA COUNTY  
 
CITY SKY/WX TMP DP RH WIND PRES REMARKS
 
JOSEPH AIRPORT CLOUDY 37 28 70 E21G35 29.94F WCI 26  
#ENTERPRISE HS N/A 41 32 70 SE2 29.98F  
#IMNAHA SCHOOL N/A 46 33 60 SE16G35 30.01S WCI 39  
#JOSEPH N/A 38 26 62 E22 30.13F WCI 27  
#JOSEPH 3N N/A 39 28 64 S18G25 29.98F WCI 30  
#JOSEPH 3W N/A 37 24 59 E10 29.79R  
#LOSTINE N/A 31 29 92 CALM 29.92S  
#LOSTINE 3SE N/A 32 31 96 E3 30.01F  
#MT HOWARD 8000 N/A 23 20 88 S22G45 29.82R WCI 8  
#WALLOWA LAKE N/A 38 29 70 SE9G26 29.95S  
#WALLOWA SCHOOL N/A 31 30 96 CALM 29.96F  
 

 
 
CLICK HERE TO GO TO PREVIOUS BULLETINS.

The Nexlab OR Page
The Nexlab WA Page Main Text Page